Regional Weather Roundup
Issued by NWS

Home | Current Version | Previous Version | Graphics & Text | Print | Product List | Glossary On
Versions: 1 2 3 4 5 6 7 8 9 10 11 12 13 14 15 16 17 18 19 20 21 22 23 24 25 26 27 28 29 30 31 32 33 34 35 36 37 38 39 40 41 42 43 44 45 46 47 48 49 50
000
ASUS43 KBIS 050910
RWRND

NORTH DAKOTA REGIONAL WEATHER ROUNDUP
NATIONAL WEATHER SERVICE BISMARCK ND
400 AM CDT SAT SEP 05 2015

NOTE: "FAIR" INDICATES FEW OR NO CLOUDS BELOW 12,000 FEET WITH NO
SIGNIFICANT WEATHER AND/OR OBSTRUCTIONS TO VISIBILITY.


NDZ001>003-009>011-017-051000-
NORTHWEST NORTH DAKOTA

CITY           SKY/WX    TMP DP  RH WIND       PRES   REMARKS
WILLISTON      LGT RAIN  58  57  97 N16       29.91F
MINOT          CLOUDY    61  59  93 NE7       29.91S
MINOT AFB      DRIZZLE   59  59 100 NE8       29.91R FOG
$$

NDZ018>021-031>035-040>046-051000-
SOUTHWEST NORTH DAKOTA

CITY           SKY/WX    TMP DP  RH WIND       PRES   REMARKS
BISMARCK       MOCLDY    68  67  96 NE9       29.84S
GARRISON         N/A     63  61  93 NE7       29.87F
HETTINGER ARPT MOCLDY    65  57  75 N15       29.86F
$$

NDZ004>008-012>016-024-026-027-054-051000-
NORTHEAST NORTH DAKOTA

CITY           SKY/WX    TMP DP  RH WIND       PRES   REMARKS
GRAND FORKS    CLOUDY    65  64  97 N9        29.88S
GRND FRKS AFB  FOG       63  63  99 N8        29.89F VSB 1/2
DEVILS LAKE    CLOUDY    63  57  82 NE10      29.90F
$$

NDZ022-023-025-028>030-036>039-047>053-051000-
SOUTHEAST NORTH DAKOTA

CITY           SKY/WX    TMP DP  RH WIND       PRES   REMARKS
FARGO          CLEAR     72  68  87 SE7       29.84R
JAMESTOWN      FOG       67  66  97 E6        29.85F VSB 1/4
$$



USA.gov is the U.S. government's official web portal to all federal, state and local government web resources and services.